{"data":{"norad_id":41794,"epoch":"2026-05-24T23:17:52.804320Z","epoch_age_seconds":71348,"freshness":"FRESH","line1":"1 41794U 16060B   26144.97075005 -.00000247  00000+0  00000+0 0  9990","line2":"2 41794   0.0146 295.5559 0001678 120.4751 320.8047  1.00272870 35289","mean_motion":1.0027287,"eccentricity":0.0001678,"inclination_deg":0.0146,"raan_deg":295.5559,"arg_perigee_deg":120.4751,"mean_anomaly_deg":320.8047,"bstar":0,"rev_number":3528,"period_min":1436.0813647799,"perigee_km":35779.215608062,"apogee_km":35793.365990031,"semimajor_km":42164.427799047,"source":"CELESTRAK","updated_at":"2026-05-25T13:38:14.008049Z"}}